Location: Ebersheim
(48.3033°N, 7.4991°E)
Time: 02:50:43
(UTC+00:00)

Cosmos 1869 Rocket - Pass Details

Date: 27 February 2020
Orbit: 605 x 633 km, 82.5° (Epoch: 05 April)

Event Time Altitude Azimuth Distance (km) Brightness Sun altitude
Rises 19:07:53 0° 199° (SSW) 2,887 7.1 -20.3°
Reaches altitude 10° 19:10:09 10° 203° (SSW) 1,981 6.3 -20.7°
Maximum altitude 19:14:28 57° 282° (WNW) 729 4.2 -21.4°
Drops below altitude 10° 19:18:47 10° 2° (N) 1,980 6.3 -22.1°
Sets 19:21:03 0° 7° (N) 2,885 7.1 -22.4°
